Regional Weather Roundup
Issued by NWS

Home | Current Version | Previous Version | Graphics & Text | Print | Product List | Glossary On
Versions: 1 2 3 4 5 6 7 8 9 10 11 12 13 14 15 16 17 18 19 20 21 22 23 24 25 26 27 28 29 30 31 32 33 34 35 36 37 38 39 40 41 42 43 44 45 46 47 48 49 50
000
ASUS43 KDMX 271507
RWRIA

WEATHER ROUNDUP FOR IOWA
NATIONAL WEATHER SERVICE DES MOINES IA
900 AM CST TUE JAN 27 2015

NOTE: "FAIR" INDICATES FEW OR NO CLOUDS BELOW 12,000 FEET WITH NO
SIGNIFICANT WEATHER AND/OR OBSTRUCTIONS TO VISIBILITY.

* - THESE STATIONS ARE NOT NWS STATIONS...THUS NOT UNDER NWS
QUALITY CONTROL.  THEY ALSO DO NOT REPORT WEATHER SUCH
AS PRECIPITATION OR FOG.

IAZ001>003-012>014-020>022-031>034-043>046-271600-
   NORTHWEST IOWA

CITY           SKY/WX    TMP DP  RH WIND       PRES   REMARKS
CARROLL *      SUNNY     30  32 100 CALM      30.14S
CHEROKEE *     MOSUNNY   32  32 100 CALM      30.13S
DENISON *      SUNNY     32  32 100 E5        30.11S WCI  27
LE MARS *      FOG       30  30 100 SE3       30.13R VSB 0
ORANGE CITY *  FOG       30  30 100 SE6       30.11S VSB 0   WCI  24
SHELDON *      FOG       30  30 100 SE8       30.11R VSB 0   WCI  23
SIOUX CITY     MOSUNNY   30  29  96 SE6       30.13R WCI  24
SPENCER        FOG       30  28  92 E7        30.14R VSB 1/2 WCI  23
STORM LAKE *   SUNNY     30  32 100 E6        30.13S WCI  24
$$

IAZ055>058-069>071-079>083-090>094-271600-
   SOUTHWEST IOWA

CITY           SKY/WX    TMP DP  RH WIND       PRES   REMARKS
ATLANTIC *     SUNNY     28  28 100 CALM      30.15R
AUDUBON *      SUNNY     28  27  93 CALM      30.15R
CLARINDA *     SUNNY     28  28 100 CALM      30.17S
COUNCIL BLFS * SUNNY     34  34 100 CALM      30.12S
CRESTON *      SUNNY     30  30 100 CALM      30.15R
HARLAN  *      SUNNY     28  28 100 CALM      30.17S
LAMONI         SUNNY     32  30  92 NW3       30.15R
RED OAK *      SUNNY     28  28 100 CALM      30.16R
SHENANDOAH *   SUNNY     28  28 100 NE5       30.16S WCI  23
$$

IAZ047>049-059>061-072>074-084-271600-
   CENTRAL IOWA

CITY           SKY/WX    TMP DP  RH WIND       PRES   REMARKS
AMES           SUNNY     33  30  88 N3        30.15R
ANKENY *       SUNNY     34  32  93 CALM      30.16R
CHARITON *     SUNNY     32  32 100 N3        30.14R
DES MOINES     MOSUNNY   35  30  82 NE5       30.15R WCI  31
GRINNELL*      SUNNY     34  30  86 N6        30.14R WCI  29
KNOXVILLE *    SUNNY     32  30  93 NW3       30.14R
MARSHALLTOWN   MOSUNNY   33  30  88 N6        30.13R WCI  28
PELLA *        SUNNY     34  32  93 N6        30.16R WCI  29
PERRY *          N/A     32  32 100 W3        30.16R
$$

IAZ004>006-015-016-023>025-035-036-271600-
   NORTH CENTRAL IOWA

CITY           SKY/WX    TMP DP  RH WIND       PRES   REMARKS
ALGONA *       SUNNY     30  30 100 NE5       30.14R WCI  25
CLARION *      SUNNY     32  32 100 NE6       30.14R WCI  26
ESTHERVILLE    MOSUNNY   29  29 100 CALM      30.13R
FORT DODGE *   SUNNY     30  28  93 CALM      30.15R
MASON CITY     CLOUDY    33  28  81 NE8       30.14R WCI  26
FOREST CITY *  CLOUDY    34  30  86 NE6       30.13R WCI  29
IOWA FALLS *   CLOUDY    34  30  86 NE5       30.15R WCI  30
$$

IAZ007>011-017>019-026>030-037>042-050>054-066-271600-
   NORTHEAST IOWA

CITY           SKY/WX    TMP DP  RH WIND       PRES   REMARKS
CEDAR RAPIDS   CLOUDY    32  27  81 N13       30.13R WCI  22
CHARLES CITY * CLOUDY    34  30  86 NE7       30.14R WCI  28
CLINTON *      CLOUDY    27  21  80 NE10      30.18R WCI  17
DECORAH *      CLOUDY    28  25  86 N8        30.13R WCI  20
DUBUQUE        CLOUDY    27  23  85 NE10      30.13R WCI  17
MONTICELLO *   CLOUDY    30  27  86 N5        30.14R WCI  25
OELWEIN *      CLOUDY    32  28  86 NE7       30.14R WCI  26
WATERLOO       CLOUDY    33  31  92 E8        30.14R WCI  26
$$

IAZ064-065-067-068-078-271600-
   EAST CENTRAL IOWA

CITY           SKY/WX    TMP DP  RH WIND       PRES   REMARKS
DAVENPORT      CLOUDY    29  22  75 NE13      30.15R WCI  19
IOWA CITY      CLOUDY    34  27  75 N12       30.16R WCI  25
MT. PLEASANT * SUNNY     34  32  93 N7        30.15R WCI  28
MUSCATINE *    CLOUDY    34  28  80 NE12      30.16R WCI  25
QUAD CITIES    CLOUDY    30  24  78 N8        30.14R WCI  22
$$

IAZ062-063-075>077-085>089-095>099-271600-
   SOUTHEAST IOWA

CITY           SKY/WX    TMP DP  RH WIND       PRES   REMARKS
BURLINGTON     PTSUNNY   35  31  85 N9        30.13R WCI  28
FAIRFIELD *    SUNNY     32  30  93 N6        30.14R WCI  26
FORT MADISON * SUNNY     37  34  87 NW6       30.14R WCI  33
KEOKUK *       SUNNY     37  32  81 N6        30.13R WCI  33
OSKALOOSA *      N/A     32  30  93 N8        30.15R WCI  25
CENTERVILLE *  SUNNY     34  32  93 N7        30.15R WCI  28
OTTUMWA        SUNNY     33  29  85 N6        30.14R WCI  28
WASHINGTON *   CLOUDY    32  32 100 N7        30.15R WCI  26
$$

ABBREVIATIONS USED IN REMARKS
   TC - TEMPERATURES IN CELSIUS
  WCI - WIND CHILL INDEX
   HX - HEAT INDEX
  VSB - VISIBILITY
$$



USA.gov is the U.S. government's official web portal to all federal, state and local government web resources and services.